Stations météo

réclame
Mon MeteoGroup
Dörnick, Allemagne (10150): Température de l'air & dewpoint: 08.08.2018 23:00:00 - 14.08.2018 23:00:00 (CEST)Dörnick, Allemagne (10150): Température de l'air 5cm & Température de l'air -5cm: 08.08.2018 23:00:00 - 14.08.2018 23:00:00 (CEST)Dörnick, Allemagne (10150): Température de l'air -20cm & Température de l'air -100cm: 08.08.2018 23:00:00 - 14.08.2018 23:00:00 (CEST)Dörnick, Allemagne (10150): Vitesse du vent & gusts: 08.08.2018 23:00:00 - 14.08.2018 23:00:00 (CEST)Dörnick, Allemagne (10150): Direction du vent: 08.08.2018 23:00:00 - 14.08.2018 23:00:00 (CEST)Dörnick, Allemagne (10150): reduced air pressure: 08.08.2018 23:00:00 - 14.08.2018 23:00:00 (CEST)Dörnick, Allemagne (10150): visibility: 08.08.2018 23:00:00 - 14.08.2018 23:00:00 (CEST)Dörnick, Allemagne (10150): Ensoleillement: 08.08.2018 23:00:00 - 14.08.2018 23:00:00 (CEST)Dörnick, Allemagne (10150): Quantités de précipitations: 08.08.2018 23:00:00 - 14.08.2018 23:00:00 (CEST)
Date & Time tt [°C] td [°C] tt 5cm [°C] tt -5cm [°C] tt -20cm [°C] tt -100cm [°C] ff [km/h] ff [knt] fx [km/h] fx [knt] dd ppp [hPa] vv [km] sd [min] rr [mm]
14.08.2018 23:00:00 18,5 16,9 18,1 18,8 21,0 18,7 14 8 23 12 W 1012,6 24 0 0,0
14.08.2018 22:00:00 18,6 16,5 17,8 19,2 21,6 18,7 10 5 25 13 W 1012,1 28 0 0,0
14.08.2018 21:00:00 19,0 15,4 18,1 19,8 22,2 18,7 12 6 25 14 W 1011,6 21 1 0,0
14.08.2018 20:00:00 20,6 14,8 20,2 22,1 22,6 18,7 16 8 33 18 W 1010,8 24 49 0,0
14.08.2018 19:00:00 21,5 13,7 22,1 24,9 22,6 18,7 22 12 42 23 W 1010,5 27 51 0,0
14.08.2018 18:00:00 22,2 14,6 23,7 24,9 22,5 18,7 24 13 40 22 W 1009,8 30 22 0,0
14.08.2018 17:00:00 22,2 15,6 23,9 25,7 22,4 18,7 16 9 39 21 NW 1009,2 26 18 0,0
14.08.2018 16:00:00 23,7 15,7 25,9 27,3 22,0 18,7 19 11 34 19 W 1008,5 19 15 0,0
14.08.2018 15:00:00 22,6 16,9 25,4 26,9 21,6 18,7 19 10 29 16 W 1008,1 18 44 0,0
14.08.2018 14:00:00 19,9 16,6 18,9 23,5 21,2 18,7 16 9 32 18 W 1008,0 19 19 0,7
14.08.2018 13:00:00 21,6 15,5 23,8 27,7 20,1 18,8 21 11 37 20 WSW 1007,6 20 33 0,0
14.08.2018 12:00:00 20,3 15,4 21,8 24,3 19,4 18,8 19 10 30 16 WSW 1007,4 18 19 0,0
14.08.2018 11:00:00 20,0 16,4 22,2 23,7 18,7 18,8 18 10 30 16 WSW 1007,2 11 18 0,0
14.08.2018 10:00:00 18,2 16,4 19,0 19,3 18,3 18,8 16 8 26 14 SW 1006,8 11 0 0,0
14.08.2018 09:00:00 18,0 16,3 19,6 19,8 18,1 18,8 14 7 26 14 SW 1006,4 13 5 0,0
14.08.2018 08:00:00 17,1 16,0 16,8 17,4 18,1 18,8 14 8 26 14 SW 1005,9 10 0 0,0
14.08.2018 07:00:00 16,8 16,0 16,3 17,0 18,1 18,8 13 7 23 12 SW 1005,7 5 0 0,4
14.08.2018 06:00:00 16,7 15,7 16,0 16,7 18,3 18,8 11 6 23 13 SW 1005,5 5 0 0,1
14.08.2018 05:00:00 17,2 15,9 16,8 17,0 18,4 18,8 13 7 24 13 SW 1005,1 4,8 0 0,0
14.08.2018 04:00:00 17,0 16,0 16,7 17,0 18,5 18,8 11 6 19 10 SSW 1005,2 3,8 0 0,0
14.08.2018 03:00:00 16,8 15,9 16,5 17,0 18,6 18,8 12 7 23 13 SSW 1005,4 4,0 0 0,0
14.08.2018 02:00:00 16,6 15,8 16,1 16,7 18,9 18,9 9 5 21 11 SW 1005,5 6 0 0,0
14.08.2018 01:00:00 16,3 15,4 15,2 16,1 19,4 18,9 9 5 16 8 SSW 1005,4 9 0 0,0
14.08.2018 00:00:00 17,1 16,3 16,2 17,2 19,8 18,9 10 5 15 8 SSW 1005,3 11 0 0,0
13.08.2018 23:00:00 17,6 16,6 17,1 18,3 20,2 18,9 5 3 8 5 S 1005,1 13 0 0,4
13.08.2018 22:00:00 18,1 16,5 17,0 18,7 20,6 18,9 9 5 27 15 WSW 1005,0 23 0 0,2
13.08.2018 21:00:00 21,0 15,5 20,1 20,3 21,0 18,9 7 4 9 5 SSE 1004,8 48 0 0,0
13.08.2018 20:00:00 21,5 14,6 20,5 21,0 21,3 19,0 6 3 13 7 SE 1004,6 38 0 0,0
13.08.2018 19:00:00 22,4 13,1 21,5 22,3 21,5 19,0 9 5 18 10 S 1004,8 36 0 0,0
13.08.2018 18:00:00 22,9 13,5 22,5 23,3 21,6 19,0 8 4 22 12 SSW 1005,2 36 0 0,0
13.08.2018 17:00:00 23,7 12,4 23,0 23,4 21,7 19,0 8 4 16 8 SSE 1005,4 47 0 0,0
13.08.2018 16:00:00 24,4 11,0 24,0 25,0 21,6 19,0 7 4 16 9 E 1005,2 48 0 0,0
13.08.2018 15:00:00 24,7 12,7 26,3 26,8 21,2 19,1 11 6 16 8 ENE 1005,6 41 0 0,0
13.08.2018 14:00:00 24,4 10,5 24,9 26,2 20,6 19,1 8 5 16 9 ESE 1006,2 51 0 0,0
13.08.2018 13:00:00 - - - - - - - - - - - - - - -
13.08.2018 12:00:00 - - - - - - - - 14 7 - - - - 0,0
13.08.2018 11:00:00 20,6 12,8 22,2 21,7 18,0 19,1 7 4 11 6 E 1007,1 41 0 0,0
13.08.2018 10:00:00 19,8 12,9 20,4 19,6 17,5 19,2 6 3 12 7 SE 1007,5 41 0 0,0
13.08.2018 09:00:00 18,5 12,9 18,5 17,5 17,3 19,2 7 4 10 5 SE 1007,6 40 0 0,0
13.08.2018 08:00:00 18,1 12,6 17,5 16,7 17,2 19,2 7 4 10 5 ESE 1007,6 36 0 0,0
13.08.2018 07:00:00 17,3 13,0 16,5 16,0 17,3 19,2 6 3 9 5 SE 1007,8 31 0 0,0
13.08.2018 06:00:00 16,7 13,7 14,7 15,8 17,4 19,2 4 2 8 4 ENE 1008,1 30 0 0,0
13.08.2018 05:00:00 17,7 13,2 16,4 15,8 17,5 19,3 6 3 10 5 ESE 1008,5 37 0 0,0
13.08.2018 04:00:00 17,9 13,0 16,5 16,0 17,6 19,3 6 4 10 5 SE 1008,8 43 0 0,0
13.08.2018 03:00:00 18,4 13,2 16,7 16,2 17,7 19,3 6 4 10 6 SE 1009,4 41 0 0,0
13.08.2018 02:00:00 18,0 13,7 16,1 16,6 17,8 19,3 3 2 6 4 NE 1009,8 44 0 0,0
13.08.2018 01:00:00 17,9 13,7 15,9 16,6 18,0 19,4 4 2 11 6 S 1010,3 37 0 0,0
13.08.2018 00:00:00 18,8 13,3 17,0 16,7 18,1 19,4 6 4 16 9 S 1010,4 48 0 0,0
12.08.2018 23:00:00 19,2 13,4 18,1 17,1 18,3 19,4 8 5 12 7 SSE 1010,7 55 0 0,0
12.08.2018 22:00:00 18,5 14,2 16,8 17,3 18,4 19,4 5 3 13 7 SSW 1011,2 10 0 0,0
12.08.2018 21:00:00 19,7 12,9 18,5 17,6 18,6 19,5 10 5 20 11 S 1011,2 60 0 0,0
12.08.2018 20:00:00 20,2 12,0 19,1 18,4 18,8 19,5 13 7 22 12 S 1011,6 36 0 0,0
12.08.2018 19:00:00 20,1 11,7 19,7 19,3 18,8 19,5 17 9 24 13 S 1012,1 46 0 0,0
12.08.2018 18:00:00 19,4 12,0 19,5 19,3 18,8 19,6 14 7 26 14 SSW 1013,0 42 0 0,0
12.08.2018 17:00:00 18,3 11,5 18,4 18,9 18,9 19,6 13 7 35 19 SW 1014,1 31 0 0,0
12.08.2018 16:00:00 18,5 11,5 19,0 20,1 18,8 19,6 10 5 29 15 S 1014,7 24 0 0,0
12.08.2018 15:00:00 17,9 10,4 18,3 19,3 18,8 19,6 12 6 27 15 SW 1015,6 25 0 0,0
12.08.2018 14:00:00 19,1 9,7 19,9 20,7 18,5 19,7 16 9 37 20 SW 1015,7 25 0 0,0
12.08.2018 13:00:00 19,5 8,5 22,0 21,6 17,9 19,7 16 9 34 18 SW 1016,0 30 27 0,0
12.08.2018 12:00:00 18,4 8,2 20,1 20,0 17,2 19,7 18 10 32 17 SW 1016,5 31 58 0,0
12.08.2018 11:00:00 17,3 10,2 19,3 19,2 16,4 19,7 18 10 29 15 SW 1016,7 11 40 0,0
12.08.2018 10:00:00 16,3 11,0 17,6 17,7 15,8 19,8 14 7 28 15 SW 1017,0 21 42 0,0
12.08.2018 09:00:00 15,0 10,9 16,2 16,2 15,3 19,8 14 8 25 13 SW 1017,3 21 22 0,0
12.08.2018 08:00:00 13,6 11,0 13,6 13,8 15,2 19,8 14 8 23 12 SW 1017,5 34 0 0,0
12.08.2018 07:00:00 13,4 11,4 13,2 13,1 15,2 19,8 12 7 19 10 SSW 1017,5 26 3 0,0
12.08.2018 06:00:00 12,8 11,6 11,9 12,1 15,3 19,9 10 6 19 10 SSW 1017,4 20 0 0,0
12.08.2018 05:00:00 12,9 11,7 12,0 12,1 15,5 19,9 10 5 18 10 SW 1017,6 28 0 0,0
12.08.2018 04:00:00 12,8 11,3 11,2 12,1 15,6 19,9 8 4 15 8 SSW 1017,9 33 0 0,0
12.08.2018 03:00:00 14,1 11,6 13,4 12,9 15,7 19,9 9 5 20 11 WSW 1018,2 49 0 0,0
12.08.2018 02:00:00 13,1 11,0 11,9 11,8 16,0 20,0 8 4 16 9 WSW 1018,5 39 0 0,0
12.08.2018 01:00:00 13,5 10,9 11,9 12,0 16,4 20,0 11 6 18 10 SW 1018,8 41 0 0,0
12.08.2018 00:00:00 13,2 10,5 11,7 11,9 16,8 20,0 10 5 17 9 WSW 1019,1 46 0 0,0
11.08.2018 23:00:00 13,5 10,1 11,8 12,5 17,3 20,0 10 5 19 11 WSW 1019,0 54 0 0,0
11.08.2018 22:00:00 14,1 10,9 12,6 13,2 17,9 20,1 11 6 21 11 WSW 1018,9 49 0 0,0
11.08.2018 21:00:00 15,4 10,2 14,1 14,0 18,5 20,1 14 7 31 17 W 1018,5 63 11 0,0
11.08.2018 20:00:00 16,8 10,3 16,8 15,6 18,9 20,1 18 10 42 23 W 1018,0 26 28 0,0
11.08.2018 19:00:00 17,0 10,7 17,0 17,6 19,2 20,1 18 10 39 21 W 1017,8 17 32 0,0
11.08.2018 18:00:00 17,4 11,9 19,1 19,0 19,3 20,2 24 13 50 27 W 1017,1 15 35 0,0
11.08.2018 17:00:00 17,7 11,9 19,7 20,1 19,0 20,2 24 13 42 23 W 1016,8 11 34 0,1
11.08.2018 16:00:00 15,0 12,9 14,9 17,5 18,8 20,2 20 11 46 25 WSW 1016,8 13 16 0,7
11.08.2018 15:00:00 17,1 12,6 19,4 21,3 18,4 20,2 22 12 42 23 WSW 1016,4 8 17 0,9
11.08.2018 14:00:00 14,0 12,2 13,7 17,0 18,4 20,3 23 12 46 25 SW 1016,4 6 4 0,2
11.08.2018 13:00:00 14,4 12,0 15,4 18,4 18,2 20,3 24 13 50 27 SW 1016,3 7 19 0,4
11.08.2018 12:00:00 16,1 9,9 16,2 17,5 17,8 20,3 23 12 40 22 SW 1016,2 9 25 0,0
11.08.2018 11:00:00 16,4 11,3 17,9 19,2 17,2 20,3 23 12 40 21 SW 1016,5 4,7 32 0,0
11.08.2018 10:00:00 14,8 10,9 15,7 18,0 16,7 20,3 21 12 37 20 SW 1016,5 7 50 0,0
11.08.2018 09:00:00 13,7 10,9 14,5 15,0 16,5 20,3 20 11 33 18 SSW 1016,4 14 5 0,0
11.08.2018 08:00:00 12,7 10,9 11,9 13,2 16,5 20,4 15 8 36 20 SSW 1016,7 47 0 0,4
11.08.2018 07:00:00 14,5 10,4 13,5 13,5 16,6 20,4 16 9 31 17 SW 1016,6 30 0 0,0
11.08.2018 06:00:00 14,5 9,6 13,5 13,0 16,8 20,4 10 6 26 14 SSW 1016,1 38 0 0,0
11.08.2018 05:00:00 15,4 9,7 13,9 12,8 17,0 20,4 17 9 32 18 S 1016,2 39 0 0,0
11.08.2018 04:00:00 15,5 10,6 14,2 13,0 17,4 20,4 15 8 28 15 SSE 1016,7 35 0 0,0
11.08.2018 03:00:00 15,7 10,2 13,8 12,8 17,7 20,4 12 6 25 13 SSE 1017,2 44 0 0,0
11.08.2018 02:00:00 15,4 10,4 13,6 13,1 18,2 20,4 10 5 18 10 SSE 1018,3 38 0 0,0
11.08.2018 01:00:00 15,3 11,5 13,4 13,5 18,7 20,4 9 5 16 8 SSE 1019,1 35 0 0,0
11.08.2018 00:00:00 14,7 11,5 11,9 13,6 19,2 20,5 8 4 11 6 SSE 1019,5 43 0 0,0
10.08.2018 23:00:00 13,6 12,0 11,0 14,4 19,9 20,5 5 3 9 5 S 1019,9 31 0 0,0
10.08.2018 22:00:00 13,8 12,2 11,9 15,4 20,6 20,5 6 3 12 7 S 1020,2 25 0 0,0
10.08.2018 21:00:00 15,1 12,7 13,9 16,8 21,2 20,5 9 5 13 7 SSW 1020,3 31 22 0,0
10.08.2018 20:00:00 16,8 13,3 17,3 18,9 21,6 20,5 8 4 12 6 SSW 1020,2 40 59 0,0
10.08.2018 19:00:00 15,1 12,7 15,2 19,2 22,1 20,5 3 1 57 31 SSW 1020,2 35 0 5,2
10.08.2018 18:00:00 18,9 11,0 19,2 21,1 22,5 20,5 15 8 27 15 NW 1020,4 36 17 0,0
10.08.2018 17:00:00 20,1 11,6 22,5 24,8 22,1 20,5 9 5 16 9 W 1020,0 27 57 0,0
10.08.2018 16:00:00 16,4 12,2 17,0 21,1 22,0 20,5 8 4 34 19 WNW 1020,0 37 12 0,6
10.08.2018 15:00:00 18,5 10,5 20,7 22,1 21,8 20,5 19 10 46 25 WNW 1020,1 54 43 0,0
10.08.2018 14:00:00 20,7 9,7 24,1 22,7 21,3 20,5 24 13 45 25 WSW 1019,2 12 49 0,0
10.08.2018 13:00:00 19,1 11,2 21,0 21,7 21,0 20,5 22 12 42 23 WSW 1018,7 15 32 0,0
10.08.2018 12:00:00 17,6 13,8 18,4 20,2 20,7 20,5 25 13 47 26 WSW 1018,0 10 33 0,6
10.08.2018 11:00:00 17,7 12,6 20,0 20,4 20,4 20,5 24 13 41 22 WSW 1017,1 14 21 0,0
10.08.2018 10:00:00 16,7 13,5 18,3 18,8 20,2 20,5 24 13 45 24 SW 1016,2 9 19 0,0
10.08.2018 09:00:00 17,4 14,1 18,7 18,9 20,1 20,5 20 11 43 23 WSW 1014,7 22 7 0,0
10.08.2018 08:00:00 16,7 14,9 16,0 17,1 20,3 20,5 25 14 49 26 WSW 1013,3 17 0 0,6
10.08.2018 07:00:00 17,9 13,5 17,5 16,6 20,6 20,5 27 15 51 28 SW 1011,4 29 0 0,0
10.08.2018 06:00:00 17,7 13,2 17,0 16,2 21,1 20,5 23 12 51 28 SW 1010,4 56 0 0,0
10.08.2018 05:00:00 17,9 13,0 16,8 16,1 21,7 20,5 31 17 61 33 SW 1009,7 60 0 0,0
10.08.2018 04:00:00 18,9 13,7 17,6 16,8 22,4 20,5 28 15 50 27 SW 1008,8 36 0 0,0
10.08.2018 03:00:00 19,2 14,8 17,9 17,8 23,0 20,5 28 15 44 24 SSW 1008,0 33 0 0,0
10.08.2018 02:00:00 20,3 17,8 19,2 19,3 23,6 20,5 20 11 32 17 S 1007,5 20 0 0,0
10.08.2018 01:00:00 20,3 18,6 19,2 19,9 24,2 20,5 18 10 28 15 S 1007,7 18 0 0,0
10.08.2018 00:00:00 20,3 18,6 19,2 20,3 24,9 20,5 11 6 24 13 SSE 1008,0 20 0 0,0
09.08.2018 23:00:00 20,3 18,8 19,3 20,7 25,9 20,5 13 7 20 11 SSE 1007,7 22 0 0,1
09.08.2018 22:00:00 20,2 19,2 19,6 21,9 27,0 20,5 10 5 28 15 E 1008,0 20 0 1,7
09.08.2018 21:00:00 20,1 19,0 19,9 22,8 28,2 20,5 11 6 68 37 SSE 1008,4 14 0 8,1
09.08.2018 20:00:00 24,6 18,0 24,3 27,4 28,8 20,5 19 10 35 19 ENE 1006,7 24 0 0,0
09.08.2018 19:00:00 25,3 16,7 26,2 30,9 29,0 20,5 20 11 36 19 E 1008,3 26 35 0,0
09.08.2018 18:00:00 27,4 16,4 32,5 34,9 29,0 20,5 18 10 33 18 E 1009,5 27 40 0,0
09.08.2018 17:00:00 27,5 15,8 31,2 35,3 28,9 20,5 16 9 27 15 ENE 1010,7 21 7 0,0
09.08.2018 16:00:00 27,4 15,5 32,2 38,2 28,5 20,5 11 6 21 11 E 1012,2 31 15 0,0
09.08.2018 15:00:00 26,2 14,7 30,5 35,7 28,1 20,5 12 6 23 12 E 1013,1 24 22 0,0
09.08.2018 14:00:00 26,7 14,7 33,9 40,8 27,0 20,5 14 7 25 14 E 1014,3 23 49 0,0
09.08.2018 13:00:00 26,4 14,3 33,9 40,7 25,7 20,5 10 5 20 11 E 1014,8 24 60 0,0
09.08.2018 12:00:00 24,7 13,6 31,8 38,0 24,5 20,5 9 5 21 12 SE 1015,8 26 60 0,0
09.08.2018 11:00:00 23,1 13,4 31,0 34,6 23,5 20,5 9 5 16 8 ENE 1015,9 20 60 0,0
09.08.2018 10:00:00 21,9 10,0 28,2 30,7 22,7 20,5 6 3 9 5 ENE 1016,7 28 60 0,0
09.08.2018 09:00:00 20,7 12,6 23,5 26,2 22,2 20,5 4 2 9 5 S 1016,6 26 60 0,0
09.08.2018 08:00:00 17,9 15,1 19,9 21,0 22,2 20,4 0 0 4 2 N 1016,3 13 32 0,0
09.08.2018 07:00:00 14,2 13,3 13,5 17,0 22,6 20,4 4 2 4 2 E 1016,2 14 0 0,0
09.08.2018 06:00:00 13,2 12,3 10,7 16,0 23,1 20,4 1 1 5 3 W 1016,0 13 0 0,0
09.08.2018 05:00:00 13,5 12,7 11,9 16,5 23,7 20,4 3 2 4 2 S 1016,0 17 0 0,0
09.08.2018 04:00:00 14,5 13,4 13,2 17,7 24,2 20,4 3 2 7 4 W 1015,7 16 0 0,0
09.08.2018 03:00:00 15,3 14,2 15,2 18,8 24,8 20,4 4 2 6 3 SW 1015,7 19 0 0,0
09.08.2018 02:00:00 15,4 13,8 13,6 18,5 25,4 20,4 3 2 8 4 WSW 1015,7 18 0 0,0
09.08.2018 01:00:00 17,5 15,0 16,2 19,9 26,1 20,4 7 4 15 8 WNW 1015,3 20 0 0,0
09.08.2018 00:00:00 19,2 15,8 18,2 21,2 26,8 20,4 11 6 22 12 WNW 1014,7 21 0 0,0
08.08.2018 23:00:00 19,9 16,1 19,2 22,3 27,5 20,4 13 7 21 11 W 1014,6 18 0 0,0

tt = Température de l'air
td = dewpoint
tt 5cm = Température de l'air 5cm
tt -5cm = Température de l'air -5cm
tt -20cm = Température de l'air -20cm
tt -100cm = Température de l'air -100cm
ff = Vitesse du vent
fx = gusts
dd = Direction du vent
ppp = reduced air pressure
vv = visibility
sd = Ensoleillement
rr = Quantités de précipitations

stations d'obs. à proximité